NWK1742 YPPH-YPDN

Flight info

Callsign NWK1742
Flight time 3h 34m
Altitude 35000
Route PH Y31 MANIG Y36 BIDAP/N0449F370 T63 ARG J72 DN
Aircraft A320/M-SDE3FGHIRWY/LB1

Departure

Time 2026-04-23 05:15
Airport Perth International Airport (YPPH)

Arrival

Time 2026-04-23 08:49
Airport Darwin International Airport / RAAF Darwin (YPDN)
Time Latitude Longitude Altitude Speed Heading
2026-04-23 04:46 -31.93438 115.96176 59 ft 0 kts 299°
2026-04-23 05:08 -31.93449 115.96199 52 ft 4 kts 299°
2026-04-23 05:08 -31.93462 115.96226 53 ft 3 kts 299°
2026-04-23 05:08 -31.93483 115.96251 50 ft 4 kts 12°
2026-04-23 05:08 -31.93499 115.96243 51 ft 4 kts 31°
2026-04-23 05:09 -31.93509 115.96236 50 ft 0 kts 25°
2026-04-23 05:12 -31.93498 115.96243 51 ft 5 kts 28°
2026-04-23 05:13 -31.93455 115.96270 56 ft 9 kts 24°
2026-04-23 05:13 -31.93415 115.96327 56 ft 11 kts 92°
2026-04-23 05:13 -31.93447 115.96414 52 ft 12 kts 115°
2026-04-23 05:14 -31.93519 115.96594 54 ft 13 kts 115°
2026-04-23 05:14 -31.93566 115.96639 52 ft 9 kts 185°
2026-04-23 05:14 -31.93644 115.96617 57 ft 20 kts 194°
2026-04-23 05:14 -31.94051 115.96498 68 ft 99 kts 194°
2026-04-23 05:15 -31.94941 115.96242 68 ft 161 kts 194°
2026-04-23 05:15 -31.96091 115.95915 554 ft 174 kts 197°
2026-04-23 05:15 -31.97288 115.95564 1363 ft 181 kts 197°
2026-04-23 05:15 -31.98546 115.95192 2003 ft 193 kts 197°
2026-04-23 05:16 -31.99920 115.94804 2317 ft 213 kts 196°
2026-04-23 05:16 -32.01452 115.94434 2570 ft 239 kts 182°
2026-04-23 05:16 -32.03107 115.94997 2902 ft 264 kts 143°
2026-04-23 05:16 -32.04241 115.96713 3529 ft 273 kts 111°
2026-04-23 05:17 -32.04774 115.98865 4335 ft 275 kts 99°
2026-04-23 05:17 -32.05092 116.01099 5180 ft 278 kts 96°
2026-04-23 05:17 -32.05394 116.03370 5979 ft 283 kts 97°
2026-04-23 05:17 -32.05755 116.05680 6711 ft 291 kts 98°
2026-04-23 05:18 -32.06190 116.08039 7393 ft 298 kts 100°
2026-04-23 05:18 -32.06688 116.10437 8074 ft 305 kts 102°
2026-04-23 05:18 -32.07236 116.12881 8776 ft 311 kts 103°
2026-04-23 05:18 -32.07815 116.15361 9464 ft 317 kts 103°
2026-04-23 05:19 -32.08304 116.17907 10091 ft 320 kts 91°
2026-04-23 05:19 -32.08219 116.20561 10378 ft 332 kts 73°
2026-04-23 05:19 -32.07403 116.23155 10507 ft 344 kts 54°
2026-04-23 05:19 -32.05905 116.25375 10817 ft 349 kts 40°
2026-04-23 05:20 -32.04200 116.27454 11359 ft 355 kts 40°
2026-04-23 05:20 -32.02490 116.29577 11960 ft 359 kts 40°
2026-04-23 05:20 -32.00768 116.31733 12565 ft 363 kts 40°
2026-04-23 05:20 -31.99031 116.33915 13174 ft 367 kts 40°
2026-04-23 05:21 -31.97277 116.36113 13784 ft 370 kts 40°
2026-04-23 05:21 -31.95524 116.38303 14298 ft 374 kts 40°
2026-04-23 05:21 -31.93705 116.40569 14856 ft 377 kts 40°
2026-04-23 05:21 -31.91917 116.42795 15366 ft 381 kts 40°
2026-04-23 05:22 -31.90095 116.45067 15897 ft 384 kts 40°
2026-04-23 05:22 -31.88255 116.47362 16419 ft 387 kts 40°
2026-04-23 05:22 -31.86398 116.49675 16946 ft 390 kts 40°
2026-04-23 05:22 -31.84526 116.52003 17463 ft 393 kts 40°
2026-04-23 05:23 -31.82633 116.54351 18000 ft 397 kts 40°
2026-04-23 05:23 -31.80724 116.56715 18501 ft 401 kts 40°
2026-04-23 05:23 -31.78796 116.59101 18987 ft 404 kts 40°
2026-04-23 05:23 -31.76855 116.61502 19468 ft 407 kts 40°
2026-04-23 05:24 -31.74895 116.63924 19958 ft 410 kts 40°
2026-04-23 05:24 -31.72921 116.66363 20449 ft 414 kts 40°
2026-04-23 05:24 -31.70931 116.68827 20931 ft 417 kts 40°
2026-04-23 05:24 -31.68926 116.71312 21398 ft 420 kts 40°
2026-04-23 05:25 -31.66904 116.73809 21849 ft 423 kts 40°
2026-04-23 05:25 -31.64866 116.76323 22305 ft 426 kts 40°
2026-04-23 05:25 -31.62816 116.78854 22739 ft 430 kts 40°
2026-04-23 05:25 -31.60749 116.81401 23158 ft 433 kts 41°
2026-04-23 05:26 -31.58666 116.83965 23575 ft 436 kts 40°
2026-04-23 05:26 -31.56435 116.86346 23916 ft 432 kts 31°
2026-04-23 05:26 -31.53929 116.88245 24266 ft 427 kts 21°
2026-04-23 05:26 -31.51222 116.89631 24613 ft 422 kts 13°
2026-04-23 05:27 -31.48441 116.90770 24947 ft 424 kts 13°
2026-04-23 05:27 -31.45649 116.91914 25284 ft 426 kts 13°
2026-04-23 05:27 -31.42839 116.93068 25609 ft 429 kts 13°
2026-04-23 05:27 -31.40018 116.94226 25943 ft 431 kts 13°
2026-04-23 05:28 -31.37182 116.95389 26264 ft 433 kts 13°
2026-04-23 05:28 -31.34333 116.96559 26587 ft 435 kts 13°
2026-04-23 05:28 -31.31468 116.97736 26905 ft 437 kts 13°
2026-04-23 05:28 -31.28592 116.98918 27224 ft 440 kts 13°
2026-04-23 05:29 -31.25738 117.00089 27536 ft 442 kts 13°
2026-04-23 05:29 -31.22827 117.01283 27846 ft 444 kts 13°
2026-04-23 05:29 -31.19908 117.02481 28149 ft 446 kts 13°
2026-04-23 05:29 -31.16968 117.03688 28460 ft 448 kts 13°
2026-04-23 05:30 -31.14022 117.04895 28812 ft 449 kts 13°
2026-04-23 05:30 -31.11078 117.06097 29257 ft 448 kts 13°
2026-04-23 05:30 -31.08142 117.07298 29700 ft 447 kts 13°
2026-04-23 05:30 -31.05209 117.08496 30134 ft 446 kts 13°
2026-04-23 05:31 -31.02280 117.09691 30484 ft 446 kts 13°
2026-04-23 05:31 -30.99353 117.10883 30842 ft 445 kts 13°
2026-04-23 05:31 -30.96435 117.12072 31212 ft 444 kts 13°
2026-04-23 05:31 -30.93523 117.13259 31588 ft 443 kts 13°
2026-04-23 05:32 -30.90613 117.14446 31950 ft 443 kts 13°
2026-04-23 05:32 -30.87738 117.15761 32320 ft 447 kts 20°
2026-04-23 05:32 -30.85040 117.17611 32678 ft 455 kts 30°
2026-04-23 05:32 -30.82611 117.20010 33039 ft 463 kts 40°
2026-04-23 05:33 -30.80395 117.22739 33393 ft 464 kts 41°
2026-04-23 05:33 -30.78180 117.25467 33741 ft 463 kts 40°
2026-04-23 05:33 -30.75965 117.28183 34066 ft 463 kts 40°
2026-04-23 05:33 -30.73749 117.30893 34351 ft 462 kts 40°
2026-04-23 05:34 -30.71528 117.33604 34617 ft 462 kts 40°
2026-04-23 05:34 -30.69313 117.36302 34872 ft 462 kts 39°
2026-04-23 05:34 -30.67092 117.39005 34970 ft 464 kts 39°
2026-04-23 05:35 -30.62578 117.44499 34995 ft 474 kts 40°
2026-04-23 05:35 -30.58042 117.50035 34995 ft 477 kts 40°
2026-04-23 05:36 -30.53475 117.55618 34994 ft 477 kts 40°
2026-04-23 05:36 -30.48886 117.61193 34994 ft 478 kts 39°
2026-04-23 05:37 -30.44295 117.66758 34993 ft 478 kts 39°
2026-04-23 05:37 -30.39690 117.72333 34995 ft 478 kts 39°
2026-04-23 05:38 -30.35085 117.77890 34999 ft 479 kts 39°
2026-04-23 05:38 -30.30472 117.83461 34999 ft 479 kts 39°
2026-04-23 05:39 -30.25866 117.89017 34998 ft 479 kts 39°
2026-04-23 05:39 -30.21246 117.94577 35007 ft 479 kts 39°
2026-04-23 05:40 -30.16639 118.00134 35007 ft 479 kts 39°
2026-04-23 05:40 -30.12021 118.05680 35005 ft 479 kts 39°
2026-04-23 05:41 -30.07391 118.11225 34995 ft 479 kts 37°
2026-04-23 05:41 -30.02761 118.16765 34976 ft 480 kts 37°
2026-04-23 05:42 -29.98113 118.22317 34975 ft 481 kts 37°
2026-04-23 05:42 -29.93451 118.27881 34980 ft 483 kts 37°
2026-04-23 05:43 -29.88783 118.33447 34988 ft 484 kts 37°
2026-04-23 05:43 -29.84138 118.38987 35000 ft 484 kts 37°
2026-04-23 05:44 -29.79453 118.44553 35003 ft 484 kts 36°
2026-04-23 05:44 -29.74763 118.50121 35006 ft 484 kts 36°
2026-04-23 05:45 -29.70069 118.55679 35005 ft 484 kts 36°
2026-04-23 05:45 -29.65361 118.61232 35005 ft 485 kts 36°
2026-04-23 05:46 -29.60657 118.66794 35006 ft 485 kts 36°
2026-04-23 05:46 -29.55948 118.72357 35011 ft 486 kts 36°
2026-04-23 05:47 -29.51238 118.77926 35010 ft 486 kts 35°
2026-04-23 05:47 -29.46515 118.83493 35007 ft 486 kts 35°
2026-04-23 05:48 -29.41813 118.88998 35008 ft 486 kts 34°
2026-04-23 05:48 -29.37080 118.94549 35003 ft 487 kts 34°
2026-04-23 05:49 -29.32341 119.00112 35002 ft 487 kts 34°
2026-04-23 05:49 -29.27596 119.05660 34993 ft 488 kts 34°
2026-04-23 05:50 -29.22838 119.11213 34999 ft 489 kts 34°
2026-04-23 05:50 -29.18075 119.16774 35005 ft 489 kts 33°
2026-04-23 05:51 -29.13301 119.22329 35003 ft 490 kts 33°
2026-04-23 05:51 -29.08514 119.27893 35004 ft 491 kts 33°
2026-04-23 05:52 -29.03722 119.33460 35002 ft 491 kts 33°
2026-04-23 05:52 -28.98926 119.39035 35002 ft 492 kts 33°
2026-04-23 05:53 -28.94125 119.44602 35004 ft 492 kts 33°
2026-04-23 05:53 -28.89337 119.50126 34999 ft 493 kts 33°
2026-04-23 05:54 -28.84520 119.55688 35000 ft 493 kts 33°
2026-04-23 05:54 -28.79695 119.61259 34998 ft 494 kts 33°
2026-04-23 05:55 -28.74863 119.66834 34996 ft 494 kts 32°
2026-04-23 05:55 -28.70807 119.71497 34992 ft 495 kts 32°
2026-04-23 05:56 -28.65997 119.77020 34983 ft 495 kts 32°
2026-04-23 05:56 -28.61137 119.82589 34998 ft 496 kts 32°
2026-04-23 05:57 -28.56278 119.88164 34994 ft 496 kts 32°
2026-04-23 05:57 -28.51409 119.93744 34999 ft 497 kts 32°
2026-04-23 05:58 -28.46539 119.99318 34994 ft 497 kts 32°
2026-04-23 05:58 -28.41666 120.04879 34988 ft 497 kts 32°
2026-04-23 05:59 -28.36782 120.10438 34986 ft 497 kts 32°
2026-04-23 05:59 -28.31896 120.15992 34984 ft 497 kts 32°
2026-04-23 06:00 -28.26997 120.21546 34981 ft 498 kts 32°
2026-04-23 06:00 -28.22137 120.27066 34987 ft 498 kts 32°
2026-04-23 06:01 -28.17246 120.32630 34988 ft 498 kts 32°
2026-04-23 06:01 -28.12343 120.38178 34990 ft 498 kts 32°
2026-04-23 06:02 -28.07435 120.43712 34990 ft 498 kts 32°
2026-04-23 06:02 -28.02532 120.49247 34986 ft 497 kts 32°
2026-04-23 06:03 -27.97633 120.54769 34988 ft 497 kts 32°
2026-04-23 06:03 -27.92730 120.60289 34982 ft 497 kts 32°
2026-04-23 06:04 -27.87819 120.65796 34971 ft 496 kts 32°
2026-04-23 06:04 -27.82785 120.71003 34967 ft 479 kts 22°
2026-04-23 06:05 -27.77322 120.75210 34961 ft 475 kts 20°
2026-04-23 06:05 -27.71849 120.79383 34957 ft 475 kts 20°
2026-04-23 06:06 -27.66371 120.83567 34957 ft 476 kts 21°
2026-04-23 06:06 -27.60895 120.87758 34953 ft 476 kts 21°
2026-04-23 06:07 -27.55414 120.91947 34956 ft 476 kts 21°
2026-04-23 06:07 -27.49927 120.96112 34949 ft 476 kts 21°
2026-04-23 06:08 -27.44478 121.00248 34945 ft 476 kts 21°
2026-04-23 06:08 -27.38992 121.04429 34951 ft 476 kts 21°
2026-04-23 06:09 -27.33502 121.08608 34946 ft 476 kts 21°
2026-04-23 06:09 -27.28010 121.12772 34941 ft 476 kts 21°
2026-04-23 06:10 -27.22512 121.16939 34941 ft 476 kts 21°
2026-04-23 06:10 -27.17017 121.21102 34947 ft 476 kts 21°
2026-04-23 06:11 -27.11506 121.25258 34949 ft 476 kts 21°
2026-04-23 06:11 -27.06002 121.29406 34946 ft 477 kts 21°
2026-04-23 06:12 -27.00498 121.33554 34947 ft 477 kts 21°
2026-04-23 06:12 -26.92239 121.39790 34945 ft 477 kts 21°
2026-04-23 06:13 -26.86757 121.43908 34946 ft 477 kts 21°
2026-04-23 06:13 -26.81236 121.48051 34950 ft 478 kts 21°
2026-04-23 06:14 -26.75712 121.52192 34950 ft 477 kts 22°
2026-04-23 06:14 -26.70193 121.56321 34951 ft 478 kts 22°
2026-04-23 06:15 -26.64666 121.60461 34949 ft 478 kts 22°
2026-04-23 06:15 -26.59143 121.64590 34947 ft 478 kts 22°
2026-04-23 06:16 -26.53621 121.68722 34948 ft 478 kts 22°
2026-04-23 06:16 -26.48087 121.72846 34946 ft 478 kts 22°
2026-04-23 06:17 -26.42556 121.76963 34945 ft 478 kts 22°
2026-04-23 06:17 -26.37021 121.81077 34947 ft 478 kts 22°
2026-04-23 06:18 -26.31484 121.85193 34945 ft 478 kts 22°
2026-04-23 06:18 -26.25945 121.89307 34941 ft 478 kts 22°
2026-04-23 06:19 -26.20402 121.93410 34946 ft 478 kts 22°
2026-04-23 06:19 -26.14861 121.97519 34943 ft 479 kts 22°
2026-04-23 06:20 -26.09351 122.01601 34948 ft 479 kts 22°
2026-04-23 06:20 -26.03803 122.05695 34943 ft 479 kts 22°
2026-04-23 06:21 -25.98241 122.09784 34943 ft 479 kts 22°
2026-04-23 06:21 -25.92680 122.13880 34942 ft 479 kts 22°
2026-04-23 06:22 -25.87120 122.17975 34940 ft 480 kts 23°
2026-04-23 06:22 -25.81558 122.22071 34945 ft 480 kts 23°
2026-04-23 06:23 -25.75990 122.26164 34944 ft 480 kts 23°
2026-04-23 06:23 -25.70463 122.30230 34947 ft 480 kts 23°
2026-04-23 06:24 -25.64880 122.34315 34947 ft 480 kts 23°
2026-04-23 06:24 -25.59306 122.38397 34955 ft 480 kts 23°
2026-04-23 06:25 -25.53738 122.42478 34953 ft 480 kts 23°
2026-04-23 06:25 -25.48162 122.46551 34955 ft 480 kts 23°
2026-04-23 06:26 -25.42583 122.50607 34955 ft 479 kts 23°
2026-04-23 06:26 -25.37011 122.54659 34958 ft 479 kts 23°
2026-04-23 06:27 -25.31440 122.58722 34960 ft 479 kts 23°
2026-04-23 06:27 -25.25873 122.62779 34962 ft 479 kts 23°
2026-04-23 06:28 -25.20336 122.66799 34962 ft 479 kts 23°
2026-04-23 06:28 -25.14759 122.70835 34965 ft 479 kts 23°
2026-04-23 06:29 -25.09189 122.74873 34963 ft 479 kts 24°
2026-04-23 06:29 -25.03622 122.78911 34966 ft 479 kts 24°
2026-04-23 06:30 -24.98052 122.82940 34965 ft 479 kts 24°
2026-04-23 06:30 -24.92477 122.86961 34962 ft 479 kts 24°
2026-04-23 06:31 -24.86902 122.90991 34961 ft 479 kts 24°
2026-04-23 06:31 -24.81325 122.95007 34964 ft 479 kts 24°
2026-04-23 06:32 -24.75753 122.99013 34967 ft 479 kts 24°
2026-04-23 06:32 -24.70176 123.03021 34968 ft 479 kts 24°
2026-04-23 06:33 -24.64602 123.07024 34964 ft 478 kts 24°
2026-04-23 06:33 -24.59067 123.11001 34967 ft 478 kts 24°
2026-04-23 06:34 -24.53500 123.14991 34973 ft 478 kts 24°
2026-04-23 06:34 -24.47937 123.18976 34968 ft 477 kts 24°
2026-04-23 06:35 -24.42375 123.22948 34971 ft 477 kts 25°
2026-04-23 06:35 -24.36817 123.26915 34972 ft 476 kts 25°
2026-04-23 06:36 -24.31257 123.30885 34973 ft 476 kts 25°
2026-04-23 06:36 -24.25703 123.34846 34969 ft 476 kts 25°
2026-04-23 06:37 -24.20160 123.38791 34970 ft 475 kts 25°
2026-04-23 06:37 -24.14612 123.42737 34970 ft 475 kts 25°
2026-04-23 06:38 -24.09116 123.46657 34972 ft 475 kts 25°
2026-04-23 06:38 -24.03577 123.50585 34974 ft 474 kts 25°
2026-04-23 06:39 -23.98039 123.54509 34973 ft 474 kts 25°
2026-04-23 06:39 -23.92509 123.58427 34968 ft 473 kts 25°
2026-04-23 06:40 -23.86988 123.62342 34969 ft 473 kts 25°
2026-04-23 06:40 -23.81463 123.66249 34969 ft 473 kts 25°
2026-04-23 06:41 -23.75941 123.70138 34969 ft 472 kts 25°
2026-04-23 06:41 -23.70422 123.74034 34969 ft 472 kts 25°
2026-04-23 06:42 -23.64902 123.77931 34971 ft 472 kts 25°
2026-04-23 06:42 -23.59387 123.81816 34971 ft 472 kts 25°
2026-04-23 06:43 -23.53869 123.85697 34971 ft 471 kts 25°
2026-04-23 06:43 -23.48398 123.89537 34966 ft 471 kts 25°
2026-04-23 06:44 -23.43811 123.92748 34966 ft 471 kts 26°
2026-04-23 06:44 -23.37380 123.97261 34973 ft 471 kts 26°
2026-04-23 06:45 -23.32805 124.00472 34971 ft 470 kts 26°
2026-04-23 06:45 -23.27304 124.04314 34965 ft 470 kts 26°
2026-04-23 06:46 -23.21803 124.08160 34964 ft 469 kts 26°
2026-04-23 06:46 -23.16314 124.12000 34965 ft 469 kts 26°
2026-04-23 06:47 -23.10824 124.15839 34960 ft 469 kts 26°
2026-04-23 06:47 -23.04444 124.20294 34962 ft 469 kts 26°
2026-04-23 06:48 -22.99838 124.23492 34957 ft 469 kts 26°
2026-04-23 06:48 -22.94346 124.27303 34960 ft 469 kts 26°
2026-04-23 06:49 -22.88861 124.31113 34956 ft 468 kts 26°
2026-04-23 06:49 -22.83414 124.34902 34960 ft 468 kts 26°
2026-04-23 06:50 -22.77915 124.38718 35204 ft 470 kts 26°
2026-04-23 06:50 -22.75166 124.40624 35500 ft 469 kts 26°
2026-04-23 06:50 -22.72422 124.42527 35789 ft 468 kts 26°
2026-04-23 06:51 -22.70123 124.44119 36031 ft 467 kts 26°
2026-04-23 06:51 -22.67280 124.46091 36321 ft 466 kts 26°
2026-04-23 06:51 -22.64548 124.47986 36590 ft 465 kts 26°
2026-04-23 06:51 -22.61827 124.49871 36853 ft 465 kts 26°
2026-04-23 06:52 -22.56377 124.53633 36947 ft 464 kts 25°
2026-04-23 06:52 -22.50978 124.57355 36947 ft 463 kts 25°
2026-04-23 06:53 -22.45536 124.61097 36949 ft 463 kts 26°
2026-04-23 06:53 -22.40099 124.64849 36949 ft 464 kts 26°
2026-04-23 06:54 -22.34654 124.68608 36950 ft 464 kts 26°
2026-04-23 06:54 -22.29208 124.72348 36948 ft 464 kts 26°
2026-04-23 06:55 -22.23760 124.76088 36952 ft 465 kts 26°
2026-04-23 06:55 -22.18302 124.79832 36955 ft 465 kts 26°
2026-04-23 06:56 -22.12881 124.83553 36957 ft 465 kts 26°
2026-04-23 06:56 -22.07414 124.87299 36956 ft 465 kts 26°
2026-04-23 06:57 -22.01950 124.91050 36958 ft 466 kts 26°
2026-04-23 06:57 -21.96478 124.94799 36955 ft 466 kts 26°
2026-04-23 06:58 -21.90996 124.98534 36955 ft 467 kts 26°
2026-04-23 06:58 -21.85515 125.02279 36959 ft 467 kts 26°
2026-04-23 06:59 -21.80021 125.06021 36960 ft 467 kts 26°
2026-04-23 06:59 -21.74525 125.09765 36958 ft 467 kts 26°
2026-04-23 07:00 -21.69028 125.13518 36955 ft 468 kts 26°
2026-04-23 07:00 -21.63537 125.17256 36951 ft 468 kts 26°
2026-04-23 07:01 -21.58031 125.20991 36947 ft 468 kts 26°
2026-04-23 07:01 -21.52531 125.24727 36948 ft 468 kts 26°
2026-04-23 07:02 -21.47027 125.28462 36948 ft 468 kts 26°
2026-04-23 07:02 -21.41517 125.32187 36947 ft 468 kts 26°
2026-04-23 07:03 -21.36048 125.35890 36947 ft 467 kts 26°
2026-04-23 07:03 -21.30551 125.39614 36948 ft 467 kts 26°
2026-04-23 07:04 -21.25055 125.43332 36948 ft 467 kts 26°
2026-04-23 07:04 -21.19562 125.47036 36946 ft 466 kts 26°
2026-04-23 07:05 -21.14075 125.50748 36948 ft 466 kts 26°
2026-04-23 07:05 -21.08585 125.54443 36952 ft 465 kts 26°
2026-04-23 07:06 -21.03105 125.58133 36947 ft 465 kts 26°
2026-04-23 07:06 -20.97630 125.61821 36946 ft 465 kts 26°
2026-04-23 07:07 -20.92146 125.65518 36944 ft 465 kts 26°
2026-04-23 07:07 -20.86707 125.69171 36942 ft 465 kts 26°
2026-04-23 07:08 -20.81213 125.72853 36939 ft 466 kts 26°
2026-04-23 07:08 -20.75723 125.76523 36937 ft 466 kts 26°
2026-04-23 07:09 -20.70236 125.80198 36939 ft 466 kts 26°
2026-04-23 07:09 -20.64749 125.83875 36936 ft 465 kts 26°
2026-04-23 07:10 -20.59260 125.87544 36937 ft 466 kts 27°
2026-04-23 07:10 -20.53770 125.91214 36937 ft 466 kts 26°
2026-04-23 07:11 -20.48278 125.94879 36950 ft 466 kts 27°
2026-04-23 07:12 -20.40034 126.00378 36937 ft 466 kts 27°
2026-04-23 07:12 -20.34539 126.04037 36947 ft 466 kts 27°
2026-04-23 07:13 -20.29044 126.07696 36930 ft 466 kts 27°
2026-04-23 07:13 -20.23580 126.11334 36935 ft 466 kts 27°
2026-04-23 07:14 -20.18079 126.14993 36930 ft 466 kts 27°
2026-04-23 07:14 -20.12566 126.18653 36938 ft 467 kts 27°
2026-04-23 07:15 -20.07054 126.22311 36923 ft 467 kts 27°
2026-04-23 07:15 -20.01531 126.25976 36926 ft 468 kts 27°
2026-04-23 07:16 -19.96009 126.29632 36926 ft 468 kts 27°
2026-04-23 07:16 -19.90479 126.33282 36927 ft 468 kts 27°
2026-04-23 07:17 -19.84947 126.36936 36938 ft 468 kts 27°
2026-04-23 07:17 -19.79417 126.40591 36942 ft 468 kts 27°
2026-04-23 07:18 -19.73886 126.44247 36938 ft 468 kts 27°
2026-04-23 07:18 -19.68354 126.47895 36936 ft 468 kts 27°
2026-04-23 07:19 -19.62821 126.51540 36938 ft 468 kts 27°
2026-04-23 07:19 -19.57291 126.55184 36938 ft 468 kts 27°
2026-04-23 07:20 -19.51756 126.58835 36938 ft 468 kts 27°
2026-04-23 07:20 -19.46216 126.62463 36936 ft 468 kts 27°
2026-04-23 07:21 -19.40710 126.66073 36938 ft 469 kts 27°
2026-04-23 07:21 -19.35170 126.69716 36936 ft 469 kts 27°
2026-04-23 07:22 -19.29620 126.73357 36938 ft 469 kts 27°
2026-04-23 07:22 -19.24072 126.76986 36941 ft 469 kts 27°
2026-04-23 07:23 -19.18516 126.80625 36940 ft 469 kts 27°
2026-04-23 07:23 -19.12967 126.84272 36940 ft 469 kts 27°
2026-04-23 07:24 -19.07416 126.87900 36937 ft 469 kts 27°
2026-04-23 07:24 -19.01854 126.91519 36939 ft 469 kts 27°
2026-04-23 07:25 -18.96300 126.95141 36942 ft 469 kts 27°
2026-04-23 07:25 -18.90740 126.98767 36943 ft 469 kts 27°
2026-04-23 07:26 -18.85226 127.02368 36939 ft 469 kts 27°
2026-04-23 07:26 -18.79677 127.05989 36940 ft 469 kts 27°
2026-04-23 07:27 -18.74121 127.09600 36941 ft 469 kts 27°
2026-04-23 07:27 -18.68564 127.13202 36942 ft 469 kts 27°
2026-04-23 07:28 -18.63012 127.16806 36946 ft 468 kts 27°
2026-04-23 07:28 -18.57461 127.20416 36942 ft 468 kts 27°
2026-04-23 07:29 -18.51942 127.24004 36949 ft 468 kts 27°
2026-04-23 07:29 -18.46394 127.27596 36952 ft 468 kts 27°
2026-04-23 07:30 -18.40847 127.31180 36950 ft 468 kts 27°
2026-04-23 07:30 -18.35302 127.34764 36952 ft 467 kts 27°
2026-04-23 07:31 -18.29805 127.38322 36956 ft 467 kts 27°
2026-04-23 07:31 -18.24269 127.41900 36956 ft 467 kts 27°
2026-04-23 07:32 -18.18737 127.45475 36959 ft 466 kts 27°
2026-04-23 07:32 -18.13212 127.49043 36956 ft 466 kts 27°
2026-04-23 07:33 -18.07733 127.52571 36955 ft 465 kts 27°
2026-04-23 07:33 -18.02213 127.56129 36952 ft 465 kts 27°
2026-04-23 07:34 -17.96700 127.59681 36956 ft 465 kts 27°
2026-04-23 07:34 -17.91191 127.63230 36960 ft 464 kts 27°
2026-04-23 07:35 -17.85685 127.66772 36963 ft 464 kts 27°
2026-04-23 07:35 -17.80181 127.70299 36957 ft 463 kts 27°
2026-04-23 07:36 -17.74679 127.73827 36960 ft 463 kts 27°
2026-04-23 07:36 -17.69229 127.77330 36962 ft 462 kts 27°
2026-04-23 07:37 -17.63748 127.80847 36955 ft 462 kts 27°
2026-04-23 07:37 -17.59156 127.83788 36958 ft 461 kts 27°
2026-04-23 07:38 -17.52793 127.87855 36957 ft 460 kts 27°
2026-04-23 07:38 -17.48250 127.90762 36956 ft 460 kts 27°
2026-04-23 07:39 -17.42795 127.94250 36953 ft 459 kts 27°
2026-04-23 07:39 -17.37336 127.97739 36948 ft 459 kts 27°
2026-04-23 07:40 -17.31884 128.01215 36948 ft 459 kts 27°
2026-04-23 07:40 -17.26432 128.04698 36949 ft 459 kts 28°
2026-04-23 07:41 -17.20981 128.08171 36948 ft 459 kts 28°
2026-04-23 07:41 -17.15532 128.11642 36946 ft 458 kts 28°
2026-04-23 07:42 -17.10079 128.15116 36949 ft 458 kts 28°
2026-04-23 07:42 -17.04631 128.18575 36941 ft 458 kts 28°
2026-04-23 07:43 -16.99183 128.22032 36941 ft 458 kts 28°
2026-04-23 07:43 -16.93774 128.25468 36939 ft 458 kts 28°
2026-04-23 07:44 -16.88328 128.28925 36940 ft 458 kts 28°
2026-04-23 07:44 -16.82882 128.32379 36938 ft 458 kts 28°
2026-04-23 07:45 -16.77442 128.35835 36936 ft 458 kts 28°
2026-04-23 07:45 -16.71997 128.39285 36938 ft 458 kts 28°
2026-04-23 07:46 -16.66549 128.42727 36931 ft 457 kts 28°
2026-04-23 07:46 -16.60902 128.45564 36931 ft 451 kts 13°
2026-04-23 07:47 -16.54885 128.47392 36928 ft 450 kts 13°
2026-04-23 07:47 -16.48869 128.49224 36927 ft 451 kts 13°
2026-04-23 07:48 -16.42850 128.51062 36930 ft 451 kts 13°
2026-04-23 07:48 -16.36832 128.52889 36924 ft 450 kts 13°
2026-04-23 07:49 -16.30819 128.54715 36926 ft 450 kts 13°
2026-04-23 07:49 -16.24805 128.56544 36926 ft 450 kts 13°
2026-04-23 07:50 -16.18795 128.58373 36925 ft 450 kts 13°
2026-04-23 07:50 -16.12789 128.60195 36927 ft 450 kts 13°
2026-04-23 07:51 -16.06821 128.62007 36926 ft 449 kts 13°
2026-04-23 07:51 -16.00813 128.63829 36932 ft 449 kts 13°
2026-04-23 07:52 -15.94815 128.65647 36934 ft 449 kts 13°
2026-04-23 07:52 -15.88817 128.67460 36938 ft 449 kts 13°
2026-04-23 07:53 -15.82820 128.69272 36939 ft 449 kts 13°
2026-04-23 07:53 -15.76920 128.71402 36941 ft 452 kts 25°
2026-04-23 07:54 -15.71569 128.74857 36937 ft 454 kts 30°
2026-04-23 07:54 -15.66263 128.78407 36932 ft 454 kts 30°
2026-04-23 07:55 -15.60942 128.81943 36926 ft 454 kts 30°
2026-04-23 07:55 -15.55632 128.85471 36920 ft 454 kts 30°
2026-04-23 07:56 -15.50320 128.89005 36916 ft 453 kts 30°
2026-04-23 07:56 -15.45010 128.92546 36911 ft 453 kts 30°
2026-04-23 07:57 -15.39739 128.96051 36914 ft 453 kts 30°
2026-04-23 07:57 -15.34438 128.99573 36914 ft 453 kts 30°
2026-04-23 07:58 -15.29133 129.03100 36907 ft 453 kts 30°
2026-04-23 07:58 -15.23833 129.06622 36908 ft 453 kts 30°
2026-04-23 07:59 -15.18528 129.10143 36911 ft 452 kts 30°
2026-04-23 07:59 -15.13224 129.13650 36909 ft 452 kts 30°
2026-04-23 08:00 -15.07920 129.17156 36911 ft 452 kts 30°
2026-04-23 08:00 -15.02621 129.20663 36910 ft 452 kts 30°
2026-04-23 08:01 -14.97361 129.24150 36909 ft 452 kts 30°
2026-04-23 08:01 -14.92070 129.27660 36909 ft 452 kts 30°
2026-04-23 08:02 -14.86776 129.31161 36909 ft 452 kts 30°
2026-04-23 08:02 -14.81479 129.34657 36722 ft 452 kts 30°
2026-04-23 08:02 -14.78833 129.36403 36473 ft 451 kts 31°
2026-04-23 08:03 -14.76183 129.38153 36225 ft 452 kts 31°
2026-04-23 08:03 -14.73532 129.39902 35977 ft 453 kts 31°
2026-04-23 08:03 -14.70873 129.41658 35749 ft 454 kts 31°
2026-04-23 08:03 -14.68202 129.43419 35509 ft 456 kts 31°
2026-04-23 08:04 -14.65528 129.45182 35270 ft 457 kts 31°
2026-04-23 08:04 -14.62843 129.46950 35038 ft 458 kts 31°
2026-04-23 08:04 -14.60149 129.48724 34804 ft 460 kts 31°
2026-04-23 08:04 -14.57448 129.50504 34570 ft 461 kts 31°
2026-04-23 08:05 -14.54742 129.52286 34344 ft 462 kts 31°
2026-04-23 08:05 -14.52034 129.54067 34118 ft 462 kts 31°
2026-04-23 08:05 -14.49322 129.55850 33892 ft 462 kts 31°
2026-04-23 08:05 -14.46614 129.57629 33646 ft 461 kts 31°
2026-04-23 08:06 -14.43907 129.59405 33390 ft 460 kts 31°
2026-04-23 08:06 -14.41207 129.61176 33133 ft 459 kts 31°
2026-04-23 08:06 -14.38514 129.62947 32879 ft 458 kts 31°
2026-04-23 08:06 -14.35827 129.64714 32634 ft 457 kts 31°
2026-04-23 08:07 -14.33184 129.66453 32392 ft 457 kts 32°
2026-04-23 08:07 -14.30511 129.68213 32148 ft 455 kts 32°
2026-04-23 08:07 -14.27839 129.69966 31907 ft 454 kts 32°
2026-04-23 08:07 -14.25173 129.71710 31667 ft 454 kts 32°
2026-04-23 08:08 -14.22514 129.73451 31433 ft 453 kts 32°
2026-04-23 08:08 -14.19857 129.75195 31194 ft 452 kts 32°
2026-04-23 08:08 -14.17210 129.76933 30955 ft 451 kts 32°
2026-04-23 08:08 -14.14565 129.78670 30734 ft 449 kts 32°
2026-04-23 08:09 -14.11931 129.80399 30507 ft 448 kts 32°
2026-04-23 08:09 -14.09298 129.82122 30276 ft 447 kts 32°
2026-04-23 08:09 -14.06676 129.83834 30052 ft 446 kts 32°
2026-04-23 08:09 -14.04058 129.85546 29804 ft 445 kts 32°
2026-04-23 08:10 -14.01452 129.87252 29540 ft 444 kts 32°
2026-04-23 08:10 -13.98848 129.88959 29270 ft 442 kts 32°
2026-04-23 08:10 -13.93689 129.92340 28749 ft 438 kts 32°
2026-04-23 08:11 -13.91155 129.94000 28505 ft 436 kts 33°
2026-04-23 08:11 -13.88564 129.95692 28246 ft 434 kts 32°
2026-04-23 08:11 -13.86054 129.97329 28000 ft 432 kts 32°
2026-04-23 08:11 -13.83516 129.98986 27745 ft 431 kts 33°
2026-04-23 08:12 -13.80990 130.00635 27500 ft 429 kts 33°
2026-04-23 08:12 -13.78479 130.02279 27257 ft 427 kts 33°
2026-04-23 08:12 -13.75977 130.03918 27014 ft 425 kts 33°
2026-04-23 08:12 -13.73488 130.05546 26778 ft 423 kts 33°
2026-04-23 08:13 -13.71006 130.07168 26540 ft 422 kts 33°
2026-04-23 08:13 -13.68534 130.08781 26304 ft 420 kts 33°
2026-04-23 08:13 -13.66070 130.10387 26068 ft 418 kts 33°
2026-04-23 08:13 -13.63620 130.11982 25834 ft 416 kts 33°
2026-04-23 08:14 -13.61183 130.13566 25761 ft 410 kts 33°
2026-04-23 08:14 -13.58812 130.15109 25778 ft 395 kts 33°
2026-04-23 08:14 -13.56532 130.16597 25778 ft 381 kts 33°
2026-04-23 08:14 -13.54388 130.18107 25778 ft 366 kts 43°
2026-04-23 08:15 -13.52768 130.20029 25779 ft 348 kts 61°
2026-04-23 08:15 -13.51811 130.22229 25780 ft 339 kts 78°
2026-04-23 08:15 -13.51500 130.24599 25781 ft 333 kts 94°
2026-04-23 08:15 -13.51844 130.26932 25781 ft 330 kts 110°
2026-04-23 08:16 -13.52787 130.29057 25781 ft 327 kts 126°
2026-04-23 08:16 -13.54241 130.30826 25784 ft 324 kts 141°
2026-04-23 08:16 -13.56096 130.32118 25785 ft 322 kts 156°
2026-04-23 08:16 -13.58208 130.32846 25787 ft 321 kts 171°
2026-04-23 08:17 -13.60433 130.32961 25785 ft 321 kts 186°
2026-04-23 08:17 -13.62602 130.32454 25785 ft 321 kts 201°
2026-04-23 08:17 -13.64618 130.31458 25787 ft 322 kts 208°
2026-04-23 08:17 -13.66554 130.30293 25785 ft 323 kts 211°
2026-04-23 08:18 -13.68447 130.29047 25787 ft 323 kts 212°
2026-04-23 08:18 -13.70324 130.27776 25787 ft 323 kts 212°
2026-04-23 08:18 -13.72203 130.26507 25788 ft 323 kts 212°
2026-04-23 08:18 -13.74033 130.25172 25786 ft 323 kts 221°
2026-04-23 08:19 -13.75500 130.23421 25791 ft 325 kts 237°
2026-04-23 08:19 -13.76463 130.21315 25788 ft 328 kts 252°
2026-04-23 08:19 -13.76841 130.19000 25789 ft 331 kts 268°
2026-04-23 08:19 -13.76583 130.16644 25789 ft 335 kts 283°
2026-04-23 08:20 -13.75684 130.14429 25786 ft 338 kts 300°
2026-04-23 08:20 -13.74198 130.12556 25786 ft 341 kts 317°
2026-04-23 08:20 -13.72233 130.11184 25788 ft 343 kts 334°
2026-04-23 08:20 -13.69962 130.10442 25788 ft 344 kts 352°
2026-04-23 08:21 -13.67573 130.10402 25787 ft 345 kts
2026-04-23 08:21 -13.65275 130.11068 25787 ft 344 kts 26°
2026-04-23 08:21 -13.63149 130.12192 25786 ft 344 kts 31°
2026-04-23 08:21 -13.61093 130.13459 25783 ft 344 kts 33°
2026-04-23 08:22 -13.59083 130.14789 25784 ft 344 kts 34°
2026-04-23 08:22 -13.57084 130.16139 25785 ft 344 kts 34°
2026-04-23 08:22 -13.55092 130.17498 25783 ft 343 kts 38°
2026-04-23 08:22 -13.53447 130.19194 25785 ft 339 kts 58°
2026-04-23 08:23 -13.52439 130.21387 25782 ft 335 kts 78°
2026-04-23 08:23 -13.52211 130.23708 25784 ft 331 kts 97°
2026-04-23 08:23 -13.52746 130.26011 25785 ft 327 kts 117°
2026-04-23 08:23 -13.53945 130.27930 25786 ft 323 kts 135°
2026-04-23 08:24 -13.55696 130.29351 25790 ft 321 kts 154°
2026-04-23 08:24 -13.57785 130.30114 25791 ft 320 kts 172°
2026-04-23 08:24 -13.59998 130.30139 25788 ft 320 kts 190°
2026-04-23 08:24 -13.62102 130.29421 25793 ft 321 kts 206°
2026-04-23 08:25 -13.64064 130.28311 25787 ft 322 kts 210°
2026-04-23 08:25 -13.65968 130.27102 25786 ft 322 kts 211°
2026-04-23 08:25 -13.67853 130.25845 25786 ft 322 kts 212°
2026-04-23 08:25 -13.69730 130.24582 25788 ft 322 kts 212°
2026-04-23 08:26 -13.71553 130.23241 25781 ft 323 kts 223°
2026-04-23 08:26 -13.72937 130.21430 25789 ft 325 kts 241°
2026-04-23 08:26 -13.73685 130.19235 25789 ft 328 kts 260°
2026-04-23 08:26 -13.73691 130.16883 25790 ft 332 kts 279°
2026-04-23 08:27 -13.72924 130.14642 25789 ft 336 kts 299°
2026-04-23 08:27 -13.71445 130.12778 25790 ft 340 kts 320°
2026-04-23 08:27 -13.69413 130.11537 25787 ft 342 kts 340°
2026-04-23 08:27 -13.67084 130.11086 25791 ft 343 kts
2026-04-23 08:28 -13.64775 130.11482 25789 ft 342 kts 22°
2026-04-23 08:28 -13.62646 130.12566 25793 ft 342 kts 31°
2026-04-23 08:28 -13.60601 130.13820 25787 ft 343 kts 33°
2026-04-23 08:28 -13.58588 130.15138 25788 ft 343 kts 34°
2026-04-23 08:29 -13.56590 130.16477 25786 ft 343 kts 34°
2026-04-23 08:29 -13.54591 130.17816 25752 ft 348 kts 34°
2026-04-23 08:29 -13.52483 130.19223 25284 ft 371 kts 34°
2026-04-23 08:29 -13.50295 130.20671 24881 ft 376 kts 34°
2026-04-23 08:30 -13.48089 130.22117 24474 ft 376 kts 34°
2026-04-23 08:30 -13.45885 130.23552 24075 ft 375 kts 33°
2026-04-23 08:30 -13.43679 130.24985 23645 ft 375 kts 34°
2026-04-23 08:30 -13.42217 130.25933 23356 ft 376 kts 34°
2026-04-23 08:31 -13.40011 130.27363 22892 ft 374 kts 34°
2026-04-23 08:31 -13.37811 130.28789 22452 ft 373 kts 34°
2026-04-23 08:31 -13.35626 130.30205 22020 ft 371 kts 34°
2026-04-23 08:31 -13.32708 130.32097 21427 ft 370 kts 34°
2026-04-23 08:32 -13.31271 130.33030 21129 ft 369 kts 34°
2026-04-23 08:32 -13.29102 130.34439 20674 ft 368 kts 34°
2026-04-23 08:32 -13.26944 130.35843 20217 ft 367 kts 34°
2026-04-23 08:32 -13.24787 130.37247 19755 ft 367 kts 34°
2026-04-23 08:33 -13.22635 130.38649 19296 ft 366 kts 34°
2026-04-23 08:33 -13.20484 130.40050 18834 ft 366 kts 34°
2026-04-23 08:33 -13.18340 130.41444 18368 ft 365 kts 34°
2026-04-23 08:33 -13.16192 130.42837 17864 ft 365 kts 34°
2026-04-23 08:34 -13.14052 130.44225 17387 ft 362 kts 34°
2026-04-23 08:34 -13.11928 130.45604 16923 ft 360 kts 34°
2026-04-23 08:34 -13.09820 130.46974 16460 ft 358 kts 34°
2026-04-23 08:34 -13.07717 130.48340 16000 ft 356 kts 34°
2026-04-23 08:35 -13.05625 130.49694 15540 ft 355 kts 34°
2026-04-23 08:35 -13.03544 130.51039 15081 ft 354 kts 33°
2026-04-23 08:35 -13.01464 130.52384 14623 ft 353 kts 33°
2026-04-23 08:35 -12.99391 130.53728 14170 ft 352 kts 33°
2026-04-23 08:36 -12.97322 130.55068 13713 ft 351 kts 32°
2026-04-23 08:36 -12.95286 130.56385 13221 ft 350 kts 32°
2026-04-23 08:36 -12.93234 130.57713 12768 ft 348 kts 32°
2026-04-23 08:36 -12.91196 130.59034 12320 ft 346 kts 33°
2026-04-23 08:37 -12.89169 130.60349 11875 ft 343 kts 33°
2026-04-23 08:37 -12.87159 130.61652 11434 ft 341 kts 33°
2026-04-23 08:37 -12.85152 130.62950 10994 ft 340 kts 33°
2026-04-23 08:37 -12.83159 130.64238 10560 ft 338 kts 33°
2026-04-23 08:38 -12.81188 130.65509 10192 ft 329 kts 33°
2026-04-23 08:38 -12.79311 130.66721 9975 ft 310 kts 33°
2026-04-23 08:38 -12.77518 130.67876 9534 ft 302 kts 33°
2026-04-23 08:38 -12.75764 130.69007 9400 ft 296 kts 33°
2026-04-23 08:39 -12.74019 130.70136 9080 ft 297 kts 34°
2026-04-23 08:39 -12.72276 130.71265 8748 ft 295 kts 34°
2026-04-23 08:39 -12.70634 130.72327 8355 ft 291 kts 34°
2026-04-23 08:39 -12.68937 130.73422 7931 ft 285 kts 34°
2026-04-23 08:40 -12.67271 130.74499 7695 ft 283 kts 34°
2026-04-23 08:40 -12.65591 130.75496 7449 ft 283 kts 25°
2026-04-23 08:40 -12.63675 130.75953 7198 ft 286 kts
2026-04-23 08:40 -12.61673 130.75695 6945 ft 290 kts 344°
2026-04-23 08:41 -12.59874 130.74802 6704 ft 292 kts 332°
2026-04-23 08:41 -12.58119 130.73768 6442 ft 288 kts 333°
2026-04-23 08:41 -12.56421 130.72767 6193 ft 275 kts 333°
2026-04-23 08:41 -12.54807 130.71816 5953 ft 262 kts 334°
2026-04-23 08:42 -12.53244 130.70896 5729 ft 258 kts 334°
2026-04-23 08:42 -12.51687 130.69984 5498 ft 257 kts 334°
2026-04-23 08:42 -12.50138 130.69081 5281 ft 255 kts 334°
2026-04-23 08:42 -12.48599 130.68182 5060 ft 255 kts 334°
2026-04-23 08:43 -12.47063 130.67283 4837 ft 254 kts 334°
2026-04-23 08:43 -12.45532 130.66387 4621 ft 253 kts 334°
2026-04-23 08:43 -12.43982 130.65558 4390 ft 249 kts 343°
2026-04-23 08:43 -12.42326 130.65146 4171 ft 242 kts 359°
2026-04-23 08:44 -12.40668 130.65197 3956 ft 237 kts 14°
2026-04-23 08:44 -12.39100 130.65651 3760 ft 232 kts 23°
2026-04-23 08:44 -12.37568 130.66179 3666 ft 233 kts 23°
2026-04-23 08:44 -12.36174 130.66954 3548 ft 226 kts 48°
2026-04-23 08:45 -12.35364 130.68287 3421 ft 222 kts 76°
2026-04-23 08:45 -12.35316 130.69826 3159 ft 217 kts 105°
2026-04-23 08:45 -12.35784 130.71239 3018 ft 208 kts 109°
2026-04-23 08:45 -12.36258 130.72617 2812 ft 203 kts 109°
2026-04-23 08:46 -12.36715 130.73967 2602 ft 199 kts 109°
2026-04-23 08:46 -12.37158 130.75282 2399 ft 190 kts 109°
2026-04-23 08:46 -12.37581 130.76536 2236 ft 180 kts 109°
2026-04-23 08:46 -12.37973 130.77699 2035 ft 167 kts 108°
2026-04-23 08:47 -12.38338 130.78784 1830 ft 156 kts 108°
2026-04-23 08:47 -12.38679 130.79796 1627 ft 144 kts 108°
2026-04-23 08:47 -12.38995 130.80735 1459 ft 138 kts 108°
2026-04-23 08:47 -12.39307 130.81658 1272 ft 136 kts 108°
2026-04-23 08:48 -12.39614 130.82569 1089 ft 136 kts 109°
2026-04-23 08:48 -12.39923 130.83486 903 ft 138 kts 109°
2026-04-23 08:48 -12.40239 130.84423 665 ft 139 kts 107°
2026-04-23 08:48 -12.40542 130.85354 460 ft 137 kts 107°
2026-04-23 08:49 -12.40852 130.86274 214 ft 138 kts 107°
2026-04-23 08:49 -12.41155 130.87170 129 ft 120 kts 108°
2026-04-23 08:49 -12.41347 130.87742 128 ft 43 kts 108°
2026-04-23 08:49 -12.41416 130.87953 124 ft 17 kts 97°
2026-04-23 08:50 -12.41327 130.88022 126 ft 18 kts 19°
2026-04-23 08:50 -12.41200 130.88066 125 ft 20 kts 19°
2026-04-23 08:50 -12.41101 130.88097 128 ft 13 kts
2026-04-23 08:50 -12.41042 130.88028 127 ft 15 kts 287°
2026-04-23 08:51 -12.41006 130.87919 125 ft 17 kts 289°
2026-04-23 08:51 -12.40974 130.87799 128 ft 16 kts 280°
2026-04-23 08:51 -12.40958 130.87709 128 ft 12 kts 280°
2026-04-23 08:51 -12.40941 130.87665 125 ft 6 kts 329°
2026-04-23 08:52 -12.40896 130.87675 124 ft 7 kts 19°
2026-04-23 08:52 -12.40869 130.87685 126 ft 2 kts 19°
2026-04-23 08:52 -12.40865 130.87686 128 ft 0 kts 19°